Regional Weather Roundup
Issued by NWS Jackson, KY

Home | Current Version | Previous Version | Text Only | Print | Product List | Glossary On
Versions: 1 2 3 4 5 6 7 8 9 10 11 12 13 14 15 16 17 18 19 20 21 22 23 24 25 26 27 28 29 30 31 32 33 34 35 36 37 38 39 40 41 42 43 44 45 46 47 48 49 50
000
ASUS43 KJKL 190110
RWRJKL

EAST KENTUCKY HOURLY WEATHER ROUNDUP
NATIONAL WEATHER SERVICE JACKSON KY
900 PM EDT SAT APR 18 2015

NOTE: "FAIR" INDICATES FEW OR NO CLOUDS BELOW 12,000 FEET WITH
NO SIGNIFICANT WEATHER AND/OR OBSTRUCTIONS TO VISIBILITY.

* THESE REPORTS ARE NOT UNDER NWS QUALITY CONTROL AND MAY NOT
  REPORT WEATHER SUCH AS PRECIPITATION AND FOG.

KYZ079-080-083-085-087-088-110-112-115-119-120-190200
...EASTERN KENTUCKY...

CITY           SKY/WX    TMP DP  RH WIND       PRES   REMARKS
JACKSON        MOCLDY    71  48  43 CALM      29.96R
LONDON         CLOUDY    73  49  42 CALM      29.93R
SOMERSET*      MOCLDY    70  52  52 NE6       29.93S
MONTICELLO*    CLOUDY    72  57  58 NE5       29.95R
MIDDLESBORO*   DRIZZLE   74  55  50 S9        29.95R
HARLAN APT*    CLOUDY    72  52  49 CALM      29.96R
HAZARD APT*    CLEAR     75  46  35 NE3       29.95R
PIKEVILLE APT* CLEAR     72  46  40 NE7       29.96R
BIG SANDY*     MOCLDY    71  47  42 NE5       29.96R
MOREHEAD APT*  MOCLDY    72  43  35 NE6       29.98R
$$

KYZ035-036-041-042-044-050-067-078-099-190200
...CENTRAL KENTUCKY...

CITY           SKY/WX    TMP DP  RH WIND       PRES   REMARKS
MT STERLING*   PTCLDY    70  48  46 NE7       29.96F
FLEMING/MASON* CLEAR     68  46  45 NE8       29.97S
DANVILLE*      CLOUDY    66  52  59 NE3       29.94S
RICHMOND*      CLOUDY    70  48  46 NE6       29.93S
LEXINGTON      MOCLDY    66  50  56 NE7       29.94S
FRANKFORT      CLOUDY    72  46  39 NE3       29.93S
$$

KYZ091>093-OHZ055-061-077-WVZ005-015-034-035-042-190200
...SOUTHERN OHIO/WEST VIRGINIA...

CITY           SKY/WX    TMP DP  RH WIND       PRES   REMARKS
COVINGTON      MOCLDY    70  46  42 E8        29.97R
COLUMBUS       CLOUDY    69  47  45 NE9       30.01R
DAYTON         CLOUDY    68  48  48 NE12      30.01R
WILMINGTON     MOCLDY    67  47  48 NE5       29.99R
HUNTINGTON     MOCLDY    71  43  36 NE6       29.96R
CHARLESTON       N/A     73  43  33 E5        29.96R
PINEVILLE*     PTCLDY    66  54  66 MISG      30.02R
BECKLEY        CLEAR     69  42  37 NE7       30.02R
BLUEFIELD      PTCLDY    71  46  40 S5        30.03R
$$

VAZ002-007-008-TNZ017-027-036-066-071-190200
...SOUTHWEST VIRGINIA/EAST TENNESSEE...

CITY           SKY/WX    TMP DP  RH WIND       PRES   REMARKS
WISE*          CLOUDY    68  50  52 SE6       30.04R
JONESVILLE*    CLOUDY    72  55  56 CALM      29.99R
ABINGDON*      CLOUDY    68  56  65 CALM      30.01R
BRISTOL        CLOUDY    67  59  75 SW3       29.98R
KNOXVILLE      LGT RAIN  67  64  90 CALM      29.94R
OAK RIDGE      LGT RAIN  71  62  73 SW3       29.96R
CROSSVILLE     CLOUDY    67  57  70 SE6       29.97R
NASHVILLE      CLOUDY    66  64  93 CALM      29.88F
$$

...KEY TO REMARKS...
VSB - VISIBILITY IN MILES
WCI - WIND CHILL INDEX
HX  - HEAT INDEX

$$


USA.gov is the U.S. government's official web portal to all federal, state and local government web resources and services.